contact:dominique.lefevre@mio.osupytheas.fr, maurice.libes@osupytheas.fr, didier.mallarino@osupytheas.fr
Project:EMSO http://www.emso-fr.org/EMSO-France
Depth: 2436.0 m
Title:EMSO Ligure Ouest : Data MII capteur MICROCAT
DateTime_Computer,Latitude,Longitude,Temperature,Conductivity,Pressure,DateTime_Instrument
DateTime_Computer,Latitude,Longitude,degC,S m-1,dbar,DateTime_Instrument
2020-05-17T00:02:37Z,42.805,6.029,13.2970,4.59987,2470.053,2020-5-17T02:03:19Z
2020-05-17T00:05:40Z,42.805,6.029,13.2972,4.59979,2470.1,2020-5-17T02:06:22Z
2020-05-17T00:08:44Z,42.805,6.029,13.2974,4.59973,2470.087,2020-5-17T02:09:26Z
2020-05-17T00:11:47Z,42.805,6.029,13.2972,4.59974,2470.077,2020-5-17T02:12:29Z
2020-05-17T00:14:50Z,42.805,6.029,13.2971,4.59974,2470.063,2020-5-17T02:15:32Z
2020-05-17T00:17:53Z,42.805,6.029,13.2968,4.59972,2470.1,2020-5-17T02:18:35Z
2020-05-17T00:20:57Z,42.805,6.029,13.2970,4.59973,2470.077,2020-5-17T02:21:39Z
2020-05-17T00:24:00Z,42.805,6.029,13.2968,4.59973,2470.096,2020-5-17T02:24:42Z
2020-05-17T00:27:03Z,42.805,6.029,13.2971,4.59974,2470.063,2020-5-17T02:27:45Z
2020-05-17T00:30:07Z,42.805,6.029,13.2971,4.59976,2470.087,2020-5-17T02:30:49Z
2020-05-17T00:33:10Z,42.805,6.029,13.2967,4.59974,2470.1,2020-5-17T02:33:52Z
2020-05-17T00:36:13Z,42.805,6.029,13.2971,4.59976,2470.124,2020-5-17T02:36:55Z
2020-05-17T00:39:16Z,42.805,6.029,13.2969,4.59973,2470.124,2020-5-17T02:39:58Z
2020-05-17T00:42:20Z,42.805,6.029,13.2972,4.59970,2470.11,2020-5-17T02:43:02Z
2020-05-17T00:45:23Z,42.805,6.029,13.2971,4.59971,2470.11,2020-5-17T02:46:05Z
2020-05-17T00:48:26Z,42.805,6.029,13.2969,4.59973,2470.087,2020-5-17T02:49:08Z
2020-05-17T00:51:29Z,42.805,6.029,13.2969,4.59973,2470.11,2020-5-17T02:52:11Z
2020-05-17T00:54:33Z,42.805,6.029,13.2967,4.59973,2470.087,2020-5-17T02:55:15Z
2020-05-17T00:57:36Z,42.805,6.029,13.2971,4.59973,2470.11,2020-5-17T02:58:18Z
2020-05-17T01:00:39Z,42.805,6.029,13.2971,4.59973,2470.11,2020-5-17T03:01:21Z
2020-05-17T01:03:42Z,42.805,6.029,13.2968,4.59971,2470.1,2020-5-17T03:04:24Z
2020-05-17T01:06:46Z,42.805,6.029,13.2966,4.59971,2470.087,2020-5-17T03:07:28Z
2020-05-17T01:09:49Z,42.805,6.029,13.2969,4.59973,2470.087,2020-5-17T03:10:31Z
2020-05-17T01:12:52Z,42.805,6.029,13.2970,4.59973,2470.133,2020-5-17T03:13:34Z
2020-05-17T01:15:55Z,42.805,6.029,13.2966,4.59972,2470.11,2020-5-17T03:16:37Z
2020-05-17T01:18:59Z,42.805,6.029,13.2969,4.59973,2470.11,2020-5-17T03:19:41Z
2020-05-17T01:22:02Z,42.805,6.029,13.2970,4.59973,2470.11,2020-5-17T03:22:44Z
2020-05-17T01:25:05Z,42.805,6.029,13.2970,4.59973,2470.124,2020-5-17T03:25:47Z
2020-05-17T01:28:08Z,42.805,6.029,13.2969,4.59974,2470.124,2020-5-17T03:28:50Z
2020-05-17T01:31:12Z,42.805,6.029,13.2971,4.59973,2470.133,2020-5-17T03:31:54Z
2020-05-17T01:34:15Z,42.805,6.029,13.2974,4.59974,2470.133,2020-5-17T03:34:57Z
2020-05-17T01:37:18Z,42.805,6.029,13.2968,4.59976,2470.156,2020-5-17T03:38:00Z
2020-05-17T01:40:21Z,42.805,6.029,13.2971,4.59980,2470.147,2020-5-17T03:41:03Z
2020-05-17T01:43:25Z,42.805,6.029,13.2970,4.59976,2470.156,2020-5-17T03:44:07Z
2020-05-17T01:46:28Z,42.805,6.029,13.2969,4.59981,2470.156,2020-5-17T03:47:10Z
2020-05-17T01:49:31Z,42.805,6.029,13.2968,4.59974,2470.133,2020-5-17T03:50:13Z
2020-05-17T01:52:34Z,42.805,6.029,13.2969,4.59978,2470.133,2020-5-17T03:53:17Z
2020-05-17T01:55:38Z,42.805,6.029,13.2971,4.59976,2470.156,2020-5-17T03:56:20Z
2020-05-17T01:58:41Z,42.805,6.029,13.2968,4.59974,2470.133,2020-5-17T03:59:23Z
2020-05-17T02:01:44Z,42.805,6.029,13.2968,4.59973,2470.133,2020-5-17T04:02:26Z
2020-05-17T02:04:47Z,42.805,6.029,13.2968,4.59975,2470.11,2020-5-17T04:05:29Z
2020-05-17T02:07:50Z,42.805,6.029,13.2970,4.59973,2470.133,2020-5-17T04:08:33Z
2020-05-17T02:10:54Z,42.805,6.029,13.2968,4.59974,2470.147,2020-5-17T04:11:36Z
2020-05-17T02:13:57Z,42.805,6.029,13.2974,4.59975,2470.133,2020-5-17T04:14:39Z
2020-05-17T02:17:00Z,42.805,6.029,13.2973,4.59976,2470.133,2020-5-17T04:17:42Z
2020-05-17T02:20:03Z,42.805,6.029,13.2969,4.59973,2470.11,2020-5-17T04:20:46Z
2020-05-17T02:23:07Z,42.805,6.029,13.2967,4.59976,2470.156,2020-5-17T04:23:49Z
2020-05-17T02:26:10Z,42.805,6.029,13.2973,4.59978,2470.133,2020-5-17T04:26:52Z
2020-05-17T02:29:13Z,42.805,6.029,13.2971,4.59976,2470.133,2020-5-17T04:29:55Z
2020-05-17T02:32:16Z,42.805,6.029,13.2970,4.59976,2470.156,2020-5-17T04:32:59Z
2020-05-17T02:35:20Z,42.805,6.029,13.2972,4.59978,2470.156,2020-5-17T04:36:02Z
2020-05-17T02:38:23Z,42.805,6.029,13.2972,4.59976,2470.171,2020-5-17T04:39:05Z
2020-05-17T02:41:26Z,42.805,6.029,13.2974,4.59975,2470.171,2020-5-17T04:42:08Z
2020-05-17T02:44:29Z,42.805,6.029,13.2972,4.59983,2470.171,2020-5-17T04:45:12Z
2020-05-17T02:47:33Z,42.805,6.029,13.2967,4.59976,2470.133,2020-5-17T04:48:15Z
2020-05-17T02:50:36Z,42.805,6.029,13.2974,4.59978,2470.133,2020-5-17T04:51:18Z
2020-05-17T02:53:39Z,42.805,6.029,13.2974,4.59977,2470.147,2020-5-17T04:54:21Z
2020-05-17T02:56:42Z,42.805,6.029,13.2967,4.59984,2470.143,2020-5-17T04:57:24Z
2020-05-17T02:59:46Z,42.805,6.029,13.2972,4.59979,2470.133,2020-5-17T05:00:28Z
2020-05-17T03:02:49Z,42.805,6.029,13.2971,4.59981,2470.147,2020-5-17T05:03:31Z
2020-05-17T03:05:52Z,42.805,6.029,13.2968,4.59981,2470.147,2020-5-17T05:06:34Z
2020-05-17T03:08:55Z,42.805,6.029,13.2971,4.59980,2470.156,2020-5-17T05:09:38Z
2020-05-17T03:11:59Z,42.805,6.029,13.2976,4.59982,2470.133,2020-5-17T05:12:41Z
2020-05-17T03:15:02Z,42.805,6.029,13.2976,4.59975,2470.147,2020-5-17T05:15:44Z
2020-05-17T03:18:05Z,42.805,6.029,13.2977,4.59976,2470.11,2020-5-17T05:18:47Z
2020-05-17T03:21:08Z,42.805,6.029,13.2975,4.59985,2470.133,2020-5-17T05:21:50Z
2020-05-17T03:24:12Z,42.805,6.029,13.2974,4.59978,2470.133,2020-5-17T05:24:54Z
2020-05-17T03:27:15Z,42.805,6.029,13.2983,4.60011,2470.147,2020-5-17T05:27:57Z
2020-05-17T03:30:18Z,42.805,6.029,13.2976,4.59996,2470.156,2020-5-17T05:31:00Z
2020-05-17T03:33:21Z,42.805,6.029,13.2976,4.59978,2470.133,2020-5-17T05:34:03Z
2020-05-17T03:36:25Z,42.805,6.029,13.2974,4.59976,2470.147,2020-5-17T05:37:07Z
2020-05-17T03:39:28Z,42.805,6.029,13.2968,4.59976,2470.171,2020-5-17T05:40:10Z
2020-05-17T03:42:31Z,42.805,6.029,13.2971,4.59979,2470.133,2020-5-17T05:43:13Z
2020-05-17T03:45:34Z,42.805,6.029,13.2977,4.59978,2470.156,2020-5-17T05:46:16Z
2020-05-17T03:48:38Z,42.805,6.029,13.2991,4.59998,2470.147,2020-5-17T05:49:20Z
2020-05-17T03:51:41Z,42.805,6.029,13.2971,4.59986,2470.156,2020-5-17T05:52:23Z
2020-05-17T03:54:44Z,42.805,6.029,13.3014,4.60004,2470.133,2020-5-17T05:55:26Z
2020-05-17T03:57:47Z,42.805,6.029,13.2990,4.59989,2470.156,2020-5-17T05:58:30Z
2020-05-17T04:00:51Z,42.805,6.029,13.2983,4.59980,2470.133,2020-5-17T06:01:33Z
2020-05-17T04:03:54Z,42.805,6.029,13.2979,4.59999,2470.156,2020-5-17T06:04:36Z
2020-05-17T04:06:57Z,42.805,6.029,13.2980,4.59974,2470.133,2020-5-17T06:07:39Z
2020-05-17T04:10:01Z,42.805,6.029,13.2988,4.59982,2470.156,2020-5-17T06:10:43Z
2020-05-17T04:13:04Z,42.805,6.029,13.2973,4.59978,2470.156,2020-5-17T06:13:46Z
2020-05-17T04:16:07Z,42.805,6.029,13.2979,4.59976,2470.147,2020-5-17T06:16:49Z
2020-05-17T04:19:10Z,42.805,6.029,13.2986,4.59977,2470.156,2020-5-17T06:19:52Z
2020-05-17T04:22:14Z,42.805,6.029,13.2971,4.59977,2470.133,2020-5-17T06:22:56Z
2020-05-17T04:25:17Z,42.805,6.029,13.2980,4.59991,2470.156,2020-5-17T06:25:59Z
2020-05-17T04:28:20Z,42.805,6.029,13.2983,4.59978,2470.18,2020-5-17T06:29:02Z
2020-05-17T04:31:23Z,42.805,6.029,13.2971,4.59975,2470.203,2020-5-17T06:32:06Z
2020-05-17T04:34:27Z,42.805,6.029,13.2976,4.59976,2470.18,2020-5-17T06:35:09Z
2020-05-17T04:37:30Z,42.805,6.029,13.2983,4.59996,2470.11,2020-5-17T06:38:12Z
2020-05-17T04:40:33Z,42.805,6.029,13.2970,4.59976,2470.147,2020-5-17T06:41:15Z
2020-05-17T04:43:36Z,42.805,6.029,13.2968,4.59980,2470.18,2020-5-17T06:44:18Z
2020-05-17T04:46:40Z,42.805,6.029,13.2974,4.59976,2470.156,2020-5-17T06:47:22Z
2020-05-17T04:49:43Z,42.805,6.029,13.2971,4.59973,2470.156,2020-5-17T06:50:25Z
2020-05-17T04:52:46Z,42.805,6.029,13.2970,4.59973,2470.156,2020-5-17T06:53:28Z
2020-05-17T04:55:49Z,42.805,6.029,13.2967,4.59978,2470.133,2020-5-17T06:56:31Z
2020-05-17T04:58:53Z,42.805,6.029,13.2972,4.59977,2470.147,2020-5-17T06:59:35Z
2020-05-17T05:01:56Z,42.805,6.029,13.2971,4.59978,2470.133,2020-5-17T07:02:38Z
2020-05-17T05:04:59Z,42.805,6.029,13.2981,4.59997,2470.11,2020-5-17T07:05:41Z
2020-05-17T05:08:02Z,42.805,6.029,13.2981,4.59978,2470.18,2020-5-17T07:08:44Z
2020-05-17T05:11:06Z,42.805,6.029,13.2999,4.59999,2470.171,2020-5-17T07:11:48Z
2020-05-17T05:14:09Z,42.805,6.029,13.2990,4.60005,2470.133,2020-5-17T07:14:51Z
2020-05-17T05:17:12Z,42.805,6.029,13.3009,4.60017,2470.156,2020-5-17T07:17:54Z
2020-05-17T05:20:15Z,42.805,6.029,13.3020,4.60004,2470.18,2020-5-17T07:20:57Z
2020-05-17T05:23:18Z,42.805,6.029,13.3010,4.60016,2470.133,2020-5-17T07:24:00Z
2020-05-17T05:26:22Z,42.805,6.029,13.2999,4.60052,2470.194,2020-5-17T07:27:04Z
2020-05-17T05:29:25Z,42.805,6.029,13.3000,4.60021,2470.147,2020-5-17T07:30:07Z
2020-05-17T05:32:28Z,42.805,6.029,13.2986,4.60026,2470.156,2020-5-17T07:33:10Z
2020-05-17T05:35:32Z,42.805,6.029,13.3007,4.60039,2470.133,2020-5-17T07:36:14Z
2020-05-17T05:38:35Z,42.805,6.029,13.3016,4.60035,2470.11,2020-5-17T07:39:17Z
2020-05-17T05:41:38Z,42.805,6.029,13.3006,4.60056,2470.156,2020-5-17T07:42:20Z
2020-05-17T05:44:41Z,42.805,6.029,13.3007,4.60085,2470.147,2020-5-17T07:45:24Z
2020-05-17T05:47:45Z,42.805,6.029,13.3006,4.60066,2470.133,2020-5-17T07:48:27Z
2020-05-17T05:50:48Z,42.805,6.029,13.3001,4.60083,2470.133,2020-5-17T07:51:30Z
2020-05-17T05:53:51Z,42.805,6.029,13.2987,4.60072,2470.11,2020-5-17T07:54:34Z
2020-05-17T05:56:55Z,42.805,6.029,13.3015,4.60036,2470.133,2020-5-17T07:57:37Z
2020-05-17T05:59:58Z,42.805,6.029,13.3017,4.60016,2470.133,2020-5-17T08:00:40Z
2020-05-17T06:03:01Z,42.805,6.029,13.2996,4.60029,2470.124,2020-5-17T08:03:43Z
2020-05-17T06:06:04Z,42.805,6.029,13.3000,4.60044,2470.147,2020-5-17T08:06:47Z
2020-05-17T06:09:08Z,42.805,6.029,13.3005,4.60014,2470.11,2020-5-17T08:09:50Z
2020-05-17T06:12:11Z,42.805,6.029,13.3005,4.60050,2470.11,2020-5-17T08:12:53Z
2020-05-17T06:15:14Z,42.805,6.029,13.3004,4.60016,2470.124,2020-5-17T08:15:56Z
2020-05-17T06:18:17Z,42.805,6.029,13.3000,4.60088,2470.11,2020-5-17T08:18:59Z
2020-05-17T06:21:21Z,42.805,6.029,13.2996,4.60023,2470.147,2020-5-17T08:22:03Z
2020-05-17T06:24:24Z,42.805,6.029,13.3000,4.60033,2470.124,2020-5-17T08:25:06Z
2020-05-17T06:27:27Z,42.805,6.029,13.2999,4.60073,2470.11,2020-5-17T08:28:09Z
2020-05-17T06:30:31Z,42.805,6.029,13.3008,4.60069,2470.124,2020-5-17T08:31:13Z
2020-05-17T06:33:34Z,42.805,6.029,13.3027,4.60069,2470.087,2020-5-17T08:34:16Z
2020-05-17T06:36:37Z,42.805,6.029,13.3043,4.60067,2470.11,2020-5-17T08:37:19Z
2020-05-17T06:39:40Z,42.805,6.029,13.3008,4.60050,2470.11,2020-5-17T08:40:22Z
2020-05-17T06:42:44Z,42.805,6.029,13.2993,4.60023,2470.124,2020-5-17T08:43:26Z
2020-05-17T06:45:47Z,42.805,6.029,13.3000,4.60023,2470.11,2020-5-17T08:46:29Z
2020-05-17T06:48:50Z,42.805,6.029,13.2990,4.60015,2470.124,2020-5-17T08:49:32Z
2020-05-17T06:51:53Z,42.805,6.029,13.2995,4.60031,2470.1,2020-5-17T08:52:35Z
2020-05-17T06:54:57Z,42.805,6.029,13.3024,4.60010,2470.1,2020-5-17T08:55:39Z
2020-05-17T06:58:00Z,42.805,6.029,13.3041,4.60037,2470.1,2020-5-17T08:58:42Z
2020-05-17T07:01:03Z,42.805,6.029,13.3021,4.60006,2470.124,2020-5-17T09:01:45Z
2020-05-17T07:04:06Z,42.805,6.029,13.3008,4.60039,2470.1,2020-5-17T09:04:48Z
2020-05-17T07:07:10Z,42.805,6.029,13.3014,4.60025,2470.11,2020-5-17T09:07:52Z
2020-05-17T07:10:13Z,42.805,6.029,13.3037,4.60015,2470.04,2020-5-17T09:10:55Z
2020-05-17T07:13:16Z,42.805,6.029,13.3016,4.60033,2470.063,2020-5-17T09:13:58Z
2020-05-17T07:16:19Z,42.805,6.029,13.3045,4.60039,2470.1,2020-5-17T09:17:02Z
2020-05-17T07:19:23Z,42.805,6.029,13.3014,4.60054,2470.063,2020-5-17T09:20:05Z
2020-05-17T07:22:26Z,42.805,6.029,13.3033,4.60027,2470.1,2020-5-17T09:23:08Z
2020-05-17T07:25:29Z,42.805,6.029,13.3024,4.59999,2470.1,2020-5-17T09:26:11Z
2020-05-17T07:28:33Z,42.805,6.029,13.3035,4.60026,2470.063,2020-5-17T09:29:15Z
2020-05-17T07:31:36Z,42.805,6.029,13.3040,4.60021,2470.063,2020-5-17T09:32:18Z
2020-05-17T07:34:40Z,42.805,6.029,13.3031,4.60001,2470.077,2020-5-17T09:35:22Z
2020-05-17T07:37:43Z,42.805,6.029,13.3029,4.60016,2470.077,2020-5-17T09:38:25Z
2020-05-17T07:40:46Z,42.805,6.029,13.3041,4.59997,2470.077,2020-5-17T09:41:28Z
2020-05-17T07:43:49Z,42.805,6.029,13.3018,4.59994,2470.077,2020-5-17T09:44:31Z
2020-05-17T07:46:53Z,42.805,6.029,13.2998,4.59990,2470.063,2020-5-17T09:47:35Z
2020-05-17T07:49:56Z,42.805,6.029,13.2992,4.59996,2470.077,2020-5-17T09:50:38Z
2020-05-17T07:52:59Z,42.805,6.029,13.3004,4.59984,2470.063,2020-5-17T09:53:41Z
2020-05-17T07:56:02Z,42.805,6.029,13.2990,4.60011,2470.077,2020-5-17T09:56:44Z
2020-05-17T07:59:06Z,42.805,6.029,13.2972,4.59996,2470.053,2020-5-17T09:59:48Z
2020-05-17T08:02:09Z,42.805,6.029,13.2976,4.60013,2470.053,2020-5-17T10:02:51Z
2020-05-17T08:05:12Z,42.805,6.029,13.2986,4.59999,2470.053,2020-5-17T10:05:54Z
2020-05-17T08:08:16Z,42.805,6.029,13.2995,4.59990,2470.077,2020-5-17T10:08:58Z
2020-05-17T08:11:19Z,42.805,6.029,13.2993,4.59988,2470.1,2020-5-17T10:12:01Z
2020-05-17T08:14:22Z,42.805,6.029,13.2985,4.59979,2470.063,2020-5-17T10:15:04Z
2020-05-17T08:17:26Z,42.805,6.029,13.2986,4.59980,2470.063,2020-5-17T10:18:08Z
2020-05-17T08:20:29Z,42.805,6.029,13.2984,4.59985,2470.063,2020-5-17T10:21:11Z
2020-05-17T08:23:32Z,42.805,6.029,13.2988,4.59998,2470.077,2020-5-17T10:24:14Z
2020-05-17T08:26:35Z,42.805,6.029,13.2991,4.60001,2470.063,2020-5-17T10:27:17Z
2020-05-17T08:29:39Z,42.805,6.029,13.2987,4.59994,2470.04,2020-5-17T10:30:21Z
2020-05-17T08:32:42Z,42.805,6.029,13.2993,4.59986,2470.053,2020-5-17T10:33:24Z
2020-05-17T08:35:45Z,42.805,6.029,13.2994,4.59986,2470.053,2020-5-17T10:36:27Z
2020-05-17T08:38:48Z,42.805,6.029,13.2976,4.60005,2470.03,2020-5-17T10:39:31Z
2020-05-17T08:41:52Z,42.805,6.029,13.2969,4.60021,2470.053,2020-5-17T10:42:34Z
2020-05-17T08:44:55Z,42.805,6.029,13.2971,4.60027,2470.03,2020-5-17T10:45:37Z
2020-05-17T08:47:58Z,42.805,6.029,13.2968,4.59998,2470.04,2020-5-17T10:48:40Z
2020-05-17T08:51:01Z,42.805,6.029,13.2968,4.59996,2470.077,2020-5-17T10:51:44Z
2020-05-17T08:54:05Z,42.805,6.029,13.2971,4.59978,2470.04,2020-5-17T10:54:47Z
2020-05-17T08:57:08Z,42.805,6.029,13.2968,4.59977,2470.03,2020-5-17T10:57:50Z
2020-05-17T09:00:11Z,42.805,6.029,13.2970,4.59976,2470.063,2020-5-17T11:00:53Z
2020-05-17T09:03:14Z,42.805,6.029,13.2968,4.59976,2470.053,2020-5-17T11:03:56Z
2020-05-17T09:06:18Z,42.805,6.029,13.2971,4.59976,2470.053,2020-5-17T11:07:00Z
2020-05-17T09:09:21Z,42.805,6.029,13.2967,4.59978,2470.03,2020-5-17T11:10:03Z
2020-05-17T09:12:24Z,42.805,6.029,13.2970,4.59976,2470.053,2020-5-17T11:13:06Z
2020-05-17T09:15:27Z,42.805,6.029,13.2969,4.59977,2470.017,2020-5-17T11:16:09Z
2020-05-17T09:18:31Z,42.805,6.029,13.2966,4.59987,2470.017,2020-5-17T11:19:13Z
2020-05-17T09:21:34Z,42.805,6.029,13.2968,4.59985,2470.04,2020-5-17T11:22:16Z
2020-05-17T09:24:37Z,42.805,6.029,13.2967,4.59976,2470.053,2020-5-17T11:25:19Z
2020-05-17T09:27:40Z,42.805,6.029,13.2967,4.59973,2469.993,2020-5-17T11:28:23Z
2020-05-17T09:30:44Z,42.805,6.029,13.2971,4.59973,2470.017,2020-5-17T11:31:26Z
2020-05-17T09:33:47Z,42.805,6.029,13.2970,4.59976,2470.007,2020-5-17T11:34:29Z
2020-05-17T09:36:50Z,42.805,6.029,13.2973,4.59974,2470.017,2020-5-17T11:37:33Z
2020-05-17T09:39:54Z,42.805,6.029,13.2976,4.59973,2470.03,2020-5-17T11:40:36Z
2020-05-17T09:42:57Z,42.805,6.029,13.2970,4.59974,2470.017,2020-5-17T11:43:39Z
2020-05-17T09:46:00Z,42.805,6.029,13.2969,4.59982,2470.03,2020-5-17T11:46:42Z
2020-05-17T09:49:03Z,42.805,6.029,13.2970,4.59976,2470.017,2020-5-17T11:49:46Z
2020-05-17T09:52:07Z,42.805,6.029,13.2970,4.59973,2469.993,2020-5-17T11:52:49Z
2020-05-17T09:55:10Z,42.805,6.029,13.2971,4.59972,2470.017,2020-5-17T11:55:52Z
2020-05-17T09:58:13Z,42.805,6.029,13.2970,4.59973,2469.956,2020-5-17T11:58:55Z
2020-05-17T10:01:17Z,42.805,6.029,13.2971,4.59973,2470.03,2020-5-17T12:01:59Z
2020-05-17T10:04:20Z,42.805,6.029,13.2971,4.59978,2470.03,2020-5-17T12:05:02Z
2020-05-17T10:07:23Z,42.805,6.029,13.2970,4.59973,2469.993,2020-5-17T12:08:05Z
2020-05-17T10:10:26Z,42.805,6.029,13.2967,4.59972,2470.03,2020-5-17T12:11:08Z
2020-05-17T10:13:29Z,42.805,6.029,13.2966,4.59976,2470.017,2020-5-17T12:14:12Z
2020-05-17T10:16:33Z,42.805,6.029,13.2970,4.59978,2469.993,2020-5-17T12:17:15Z
2020-05-17T10:19:36Z,42.805,6.029,13.2970,4.59973,2469.97,2020-5-17T12:20:18Z
2020-05-17T10:22:39Z,42.805,6.029,13.2970,4.59974,2469.993,2020-5-17T12:23:21Z
2020-05-17T10:25:42Z,42.805,6.029,13.2972,4.59972,2470.017,2020-5-17T12:26:25Z
2020-05-17T10:28:46Z,42.805,6.029,13.2971,4.59974,2469.993,2020-5-17T12:29:28Z
2020-05-17T10:31:49Z,42.805,6.029,13.2973,4.59973,2470.017,2020-5-17T12:32:31Z
2020-05-17T10:34:52Z,42.805,6.029,13.2968,4.59975,2470.007,2020-5-17T12:35:35Z
2020-05-17T10:37:56Z,42.805,6.029,13.2974,4.59978,2470.03,2020-5-17T12:38:38Z
2020-05-17T10:40:59Z,42.805,6.029,13.2964,4.59973,2470.007,2020-5-17T12:41:41Z
2020-05-17T10:44:02Z,42.805,6.029,13.2964,4.59973,2470.007,2020-5-17T12:44:44Z
2020-05-17T10:47:05Z,42.805,6.029,13.2969,4.59973,2470.017,2020-5-17T12:47:48Z
2020-05-17T10:50:09Z,42.805,6.029,13.2969,4.59974,2469.993,2020-5-17T12:50:51Z
2020-05-17T10:53:12Z,42.805,6.029,13.2969,4.59980,2470.007,2020-5-17T12:53:54Z
2020-05-17T10:56:15Z,42.805,6.029,13.2969,4.59981,2470.017,2020-5-17T12:56:58Z
2020-05-17T10:59:19Z,42.805,6.029,13.2972,4.59973,2469.993,2020-5-17T13:00:01Z
2020-05-17T11:02:22Z,42.805,6.029,13.2968,4.59974,2470.017,2020-5-17T13:03:04Z
2020-05-17T11:05:25Z,42.805,6.029,13.2969,4.59975,2470.007,2020-5-17T13:06:07Z
2020-05-17T11:08:28Z,42.805,6.029,13.2972,4.59981,2469.993,2020-5-17T13:09:10Z
2020-05-17T11:11:32Z,42.805,6.029,13.2971,4.59978,2469.97,2020-5-17T13:12:14Z
2020-05-17T11:14:35Z,42.805,6.029,13.2978,4.59982,2470.007,2020-5-17T13:15:17Z
2020-05-17T11:17:38Z,42.805,6.029,13.2968,4.59973,2469.993,2020-5-17T13:18:20Z
2020-05-17T11:20:41Z,42.805,6.029,13.2969,4.59972,2469.984,2020-5-17T13:21:24Z
2020-05-17T11:23:45Z,42.805,6.029,13.2969,4.59974,2469.97,2020-5-17T13:24:27Z
2020-05-17T11:26:48Z,42.805,6.029,13.2974,4.59976,2469.984,2020-5-17T13:27:30Z
2020-05-17T11:29:51Z,42.805,6.029,13.2968,4.59972,2470.017,2020-5-17T13:30:33Z
2020-05-17T11:32:55Z,42.805,6.029,13.2967,4.59973,2469.97,2020-5-17T13:33:37Z
2020-05-17T11:35:58Z,42.805,6.029,13.2968,4.59972,2469.984,2020-5-17T13:36:40Z
2020-05-17T11:39:01Z,42.805,6.029,13.2968,4.59969,2469.97,2020-5-17T13:39:43Z
2020-05-17T11:42:04Z,42.805,6.029,13.2971,4.59971,2469.97,2020-5-17T13:42:46Z
2020-05-17T11:45:08Z,42.805,6.029,13.2968,4.59973,2469.984,2020-5-17T13:45:50Z
2020-05-17T11:48:11Z,42.805,6.029,13.2967,4.59971,2469.97,2020-5-17T13:48:53Z
2020-05-17T11:51:14Z,42.805,6.029,13.2970,4.59971,2469.984,2020-5-17T13:51:56Z
2020-05-17T11:54:17Z,42.805,6.029,13.2968,4.59976,2469.993,2020-5-17T13:54:59Z
2020-05-17T11:57:20Z,42.805,6.029,13.2971,4.59973,2470.007,2020-5-17T13:58:03Z
2020-05-17T12:00:24Z,42.805,6.029,13.2973,4.59971,2470.017,2020-5-17T14:01:06Z
2020-05-17T12:03:27Z,42.805,6.029,13.2974,4.59972,2469.993,2020-5-17T14:04:09Z
2020-05-17T12:06:30Z,42.805,6.029,13.2976,4.59978,2469.993,2020-5-17T14:07:12Z
2020-05-17T12:09:34Z,42.805,6.029,13.2968,4.59975,2469.97,2020-5-17T14:10:16Z
2020-05-17T12:12:37Z,42.805,6.029,13.2975,4.59975,2469.97,2020-5-17T14:13:19Z
2020-05-17T12:15:40Z,42.805,6.029,13.2968,4.59971,2470.053,2020-5-17T14:16:22Z
2020-05-17T12:18:43Z,42.805,6.029,13.2970,4.59971,2469.97,2020-5-17T14:19:25Z
2020-05-17T12:21:47Z,42.805,6.029,13.2967,4.59971,2470.03,2020-5-17T14:22:29Z
2020-05-17T12:24:50Z,42.805,6.029,13.2971,4.59971,2470.007,2020-5-17T14:25:32Z
2020-05-17T12:27:53Z,42.805,6.029,13.2970,4.59971,2469.984,2020-5-17T14:28:35Z
2020-05-17T12:30:56Z,42.805,6.029,13.2971,4.59973,2469.993,2020-5-17T14:31:38Z
2020-05-17T12:34:00Z,42.805,6.029,13.2971,4.59971,2470.007,2020-5-17T14:34:42Z
2020-05-17T12:37:03Z,42.805,6.029,13.2973,4.59971,2470.03,2020-5-17T14:37:45Z
2020-05-17T12:40:06Z,42.805,6.029,13.2967,4.59976,2470.017,2020-5-17T14:40:48Z
2020-05-17T12:43:09Z,42.805,6.029,13.2971,4.59976,2469.993,2020-5-17T14:43:51Z
2020-05-17T12:46:12Z,42.805,6.029,13.2970,4.59981,2470.017,2020-5-17T14:46:55Z
2020-05-17T12:49:16Z,42.805,6.029,13.2968,4.59976,2470.017,2020-5-17T14:49:58Z
2020-05-17T12:52:19Z,42.805,6.029,13.2970,4.59976,2469.984,2020-5-17T14:53:01Z
2020-05-17T12:55:22Z,42.805,6.029,13.2968,4.59972,2469.993,2020-5-17T14:56:05Z
2020-05-17T12:58:26Z,42.805,6.029,13.2971,4.59973,2469.993,2020-5-17T14:59:08Z
2020-05-17T13:01:29Z,42.805,6.029,13.2971,4.59973,2470.003,2020-5-17T15:02:11Z
2020-05-17T13:04:32Z,42.805,6.029,13.2972,4.59973,2470.03,2020-5-17T15:05:14Z
2020-05-17T13:07:36Z,42.805,6.029,13.2974,4.59972,2469.993,2020-5-17T15:08:18Z
2020-05-17T13:10:39Z,42.805,6.029,13.2971,4.59971,2470.03,2020-5-17T15:11:21Z
2020-05-17T13:13:42Z,42.805,6.029,13.2970,4.59973,2470.03,2020-5-17T15:14:24Z
2020-05-17T13:16:46Z,42.805,6.029,13.2972,4.59971,2470.017,2020-5-17T15:17:28Z
2020-05-17T13:19:49Z,42.805,6.029,13.2967,4.59972,2470.017,2020-5-17T15:20:31Z
2020-05-17T13:22:52Z,42.805,6.029,13.2969,4.59972,2469.993,2020-5-17T15:23:34Z
2020-05-17T13:25:55Z,42.805,6.029,13.2967,4.59976,2470.017,2020-5-17T15:26:37Z
2020-05-17T13:28:58Z,42.805,6.029,13.2969,4.59971,2470.063,2020-5-17T15:29:41Z
2020-05-17T13:32:02Z,42.805,6.029,13.2966,4.59976,2470.053,2020-5-17T15:32:44Z
2020-05-17T13:35:05Z,42.805,6.029,13.2969,4.59971,2470.053,2020-5-17T15:35:47Z
2020-05-17T13:38:08Z,42.805,6.029,13.2968,4.59971,2470.03,2020-5-17T15:38:51Z
2020-05-17T13:41:12Z,42.805,6.029,13.2967,4.59971,2470.03,2020-5-17T15:41:54Z
2020-05-17T13:44:15Z,42.805,6.029,13.2972,4.59971,2470.017,2020-5-17T15:44:57Z
2020-05-17T13:47:18Z,42.805,6.029,13.2969,4.59971,2470.053,2020-5-17T15:48:00Z
2020-05-17T13:50:21Z,42.805,6.029,13.2969,4.59973,2470.03,2020-5-17T15:51:04Z
2020-05-17T13:53:25Z,42.805,6.029,13.2973,4.59971,2470.017,2020-5-17T15:54:07Z
2020-05-17T13:56:28Z,42.805,6.029,13.2971,4.59971,2470.007,2020-5-17T15:57:10Z
2020-05-17T13:59:31Z,42.805,6.029,13.2968,4.59970,2470.017,2020-5-17T16:00:13Z
2020-05-17T14:02:34Z,42.805,6.029,13.2969,4.59978,2470.053,2020-5-17T16:03:16Z
2020-05-17T14:05:38Z,42.805,6.029,13.2968,4.59970,2470.03,2020-5-17T16:06:20Z
2020-05-17T14:08:41Z,42.805,6.029,13.2973,4.59973,2470.053,2020-5-17T16:09:23Z
2020-05-17T14:11:44Z,42.805,6.029,13.2967,4.59972,2470.053,2020-5-17T16:12:26Z
2020-05-17T14:14:48Z,42.805,6.029,13.2971,4.59973,2470.017,2020-5-17T16:15:30Z
2020-05-17T14:17:51Z,42.805,6.029,13.2971,4.59972,2470.017,2020-5-17T16:18:33Z
2020-05-17T14:20:54Z,42.805,6.029,13.2974,4.59971,2470.063,2020-5-17T16:21:36Z
2020-05-17T14:23:57Z,42.805,6.029,13.2971,4.59973,2470.03,2020-5-17T16:24:39Z
2020-05-17T14:27:01Z,42.805,6.029,13.2969,4.59971,2470.007,2020-5-17T16:27:43Z
2020-05-17T14:30:04Z,42.805,6.029,13.2972,4.59974,2470.04,2020-5-17T16:30:46Z
2020-05-17T14:33:07Z,42.805,6.029,13.2971,4.59973,2470.053,2020-5-17T16:33:49Z
2020-05-17T14:36:10Z,42.805,6.029,13.2970,4.59973,2470.017,2020-5-17T16:36:53Z
2020-05-17T14:39:14Z,42.805,6.029,13.2974,4.59971,2470.03,2020-5-17T16:39:56Z
2020-05-17T14:42:17Z,42.805,6.029,13.2970,4.59973,2470.053,2020-5-17T16:42:59Z
2020-05-17T14:45:20Z,42.805,6.029,13.2973,4.59971,2470.04,2020-5-17T16:46:02Z
2020-05-17T14:48:23Z,42.805,6.029,13.2968,4.59972,2470.053,2020-5-17T16:49:06Z
2020-05-17T14:51:27Z,42.805,6.029,13.2972,4.59974,2470.03,2020-5-17T16:52:09Z
2020-05-17T14:54:30Z,42.805,6.029,13.2971,4.59974,2470.053,2020-5-17T16:55:12Z
2020-05-17T14:57:33Z,42.805,6.029,13.2970,4.59973,2470.03,2020-5-17T16:58:15Z
2020-05-17T15:00:37Z,42.805,6.029,13.2970,4.59982,2470.04,2020-5-17T17:01:19Z
2020-05-17T15:03:40Z,42.805,6.029,13.2971,4.59976,2470.04,2020-5-17T17:04:22Z
2020-05-17T15:06:43Z,42.805,6.029,13.2968,4.59974,2470.077,2020-5-17T17:07:25Z
2020-05-17T15:09:46Z,42.805,6.029,13.2970,4.59977,2470.1,2020-5-17T17:10:28Z
2020-05-17T15:12:50Z,42.805,6.029,13.2968,4.59975,2470.04,2020-5-17T17:13:32Z
2020-05-17T15:15:53Z,42.805,6.029,13.2969,4.59978,2470.077,2020-5-17T17:16:35Z